AFL3420 VTSP-UUEE

Flight info

Callsign AFL3420
Flight time N/A
Altitude 36000
Route UPSAB1A/09 UPSAB L515 OBMOG M770 KAKID M875 AGROM/N0498F380 M875 BUTOP A589 ASARI L509 TAPIS M875 AMDAR M875 MILSO M161 DENUD T784 LARNO T291 URIDU L158 DIMGI DIMGI3F/24L
Aircraft A359/H-SDE2E3GHIJ3J4J5LM1ORWXY/LB1D1

Departure

Time 2026-05-08 22:30
Airport Phuket International Airport (VTSP)

Arrival

Time N/A
Airport Sheremetyevo International Airport (UUEE)
Time Latitude Longitude Altitude Speed Heading
2026-05-08 22:19 8.10714 98.30503 33 ft 0 kts 105°
2026-05-08 22:20 8.10718 98.30488 33 ft 3 kts 105°
2026-05-08 22:20 8.10724 98.30468 32 ft 3 kts 105°
2026-05-08 22:21 8.10729 98.30451 31 ft 3 kts 101°
2026-05-08 22:21 8.10731 98.30434 30 ft 3 kts 76°
2026-05-08 22:21 8.10726 98.30420 30 ft 3 kts 46°
2026-05-08 22:21 8.10713 98.30408 30 ft 3 kts 27°
2026-05-08 22:22 8.10694 98.30400 30 ft 3 kts 17°
2026-05-08 22:22 8.10685 98.30397 30 ft 0 kts 15°
2026-05-08 22:24 8.10688 98.30398 33 ft 2 kts 15°
2026-05-08 22:25 8.10724 98.30408 33 ft 7 kts 15°
2026-05-08 22:25 8.10777 98.30422 33 ft 8 kts 15°
2026-05-08 22:25 8.10835 98.30438 33 ft 9 kts 15°
2026-05-08 22:25 8.10898 98.30455 33 ft 10 kts 14°
2026-05-08 22:26 8.10965 98.30472 33 ft 10 kts 14°
2026-05-08 22:26 8.11027 98.30464 33 ft 9 kts 320°
2026-05-08 22:26 8.11038 98.30407 33 ft 9 kts 267°
2026-05-08 22:26 8.11065 98.30358 33 ft 8 kts 330°
2026-05-08 22:27 8.11085 98.30352 33 ft 0 kts 351°
2026-05-08 22:28 8.11086 98.30352 33 ft 1 kts 352°
2026-05-08 22:28 8.11111 98.30349 33 ft 6 kts 353°
2026-05-08 22:28 8.11159 98.30345 33 ft 7 kts 357°
2026-05-08 22:29 8.11193 98.30369 33 ft 6 kts 65°
2026-05-08 22:29 8.11202 98.30410 33 ft 6 kts 84°
2026-05-08 22:29 8.11203 98.30414 33 ft 0 kts 84°
2026-05-08 22:29 8.11209 98.30487 33 ft 42 kts 84°
2026-05-08 22:30 8.11264 98.31064 36 ft 121 kts 84°
2026-05-08 22:30 8.11366 98.32146 118 ft 182 kts 84°
2026-05-08 22:30 8.11491 98.33453 921 ft 185 kts 84°
2026-05-08 22:30 8.11613 98.34733 1955 ft 187 kts 85°
2026-05-08 22:31 8.11745 98.36123 2575 ft 209 kts 85°
2026-05-08 22:31 8.11887 98.37620 3163 ft 224 kts 85°
2026-05-08 22:31 8.12039 98.39241 3364 ft 240 kts 85°
2026-05-08 22:31 8.12199 98.40966 3621 ft 253 kts 85°
2026-05-08 22:32 8.12366 98.42760 4036 ft 259 kts 85°
2026-05-08 22:32 8.12536 98.44582 4519 ft 262 kts 85°
2026-05-08 22:32 8.12709 98.46420 5004 ft 265 kts 85°
2026-05-08 22:32 8.12883 98.48282 5496 ft 267 kts 85°
2026-05-08 22:33 8.13058 98.50151 6021 ft 268 kts 85°
2026-05-08 22:33 8.13235 98.52034 6502 ft 270 kts 85°
2026-05-08 22:33 8.13412 98.53925 6981 ft 272 kts 85°
2026-05-08 22:33 8.13590 98.55837 7459 ft 274 kts 85°
2026-05-08 22:34 8.13850 98.57754 7922 ft 278 kts 77°
2026-05-08 22:34 8.14655 98.59525 8377 ft 282 kts 54°
2026-05-08 22:34 8.16146 98.60825 8828 ft 288 kts 29°
2026-05-08 22:34 8.18076 98.61387 9316 ft 293 kts
2026-05-08 22:35 8.20125 98.61502 9814 ft 296 kts
2026-05-08 22:35 8.22192 98.61543 10197 ft 301 kts
2026-05-08 22:35 8.24330 98.61585 10385 ft 313 kts
2026-05-08 22:35 8.26546 98.61641 10646 ft 322 kts
2026-05-08 22:36 8.28798 98.61708 11046 ft 325 kts
2026-05-08 22:36 8.31069 98.61760 11471 ft 328 kts
2026-05-08 22:36 8.33338 98.61423 11875 ft 334 kts 344°
2026-05-08 22:36 8.35407 98.60334 12292 ft 340 kts 323°
2026-05-08 22:37 8.37007 98.58540 12470 ft 353 kts 301°
2026-05-08 22:37 8.38054 98.56254 12636 ft 364 kts 292°
2026-05-08 22:37 8.38954 98.53828 12809 ft 374 kts 290°
2026-05-08 22:37 8.39864 98.51334 12969 ft 383 kts 291°
2026-05-08 22:38 8.40799 98.48814 13123 ft 392 kts 291°
2026-05-08 22:38 8.41778 98.46216 13271 ft 400 kts 291°
2026-05-08 22:38 8.42783 98.43567 13423 ft 407 kts 291°
2026-05-08 22:38 8.43809 98.40874 13615 ft 413 kts 291°
2026-05-08 22:39 8.44848 98.38155 13894 ft 416 kts 291°
2026-05-08 22:39 8.45891 98.35425 14174 ft 417 kts 291°
2026-05-08 22:39 8.46938 98.32688 14460 ft 419 kts 291°
2026-05-08 22:39 8.47992 98.29931 14756 ft 421 kts 291°
2026-05-08 22:40 8.49048 98.27169 15047 ft 423 kts 291°
2026-05-08 22:40 8.50109 98.24395 15337 ft 424 kts 291°
2026-05-08 22:40 8.51162 98.21640 15637 ft 426 kts 291°
2026-05-08 22:40 8.52232 98.18841 15931 ft 427 kts 291°
2026-05-08 22:41 8.53303 98.16038 16218 ft 429 kts 291°
2026-05-08 22:41 8.54393 98.13220 16508 ft 431 kts 292°
2026-05-08 22:41 8.55759 98.10519 16787 ft 432 kts 303°
2026-05-08 22:41 8.57646 98.08163 17065 ft 433 kts 316°
2026-05-08 22:42 8.60009 98.06285 17333 ft 433 kts 328°
2026-05-08 22:42 8.62617 98.04750 17611 ft 434 kts 332°
2026-05-08 22:42 8.65311 98.03354 17872 ft 436 kts 335°
2026-05-08 22:42 8.68058 98.02018 18122 ft 438 kts 335°
2026-05-08 22:43 8.70818 98.00699 18344 ft 440 kts 335°
2026-05-08 22:43 8.73593 97.99364 18569 ft 441 kts 335°
2026-05-08 22:43 8.76363 97.98013 18806 ft 443 kts 335°
2026-05-08 22:43 8.79137 97.96640 19040 ft 444 kts 334°
2026-05-08 22:44 8.81879 97.95269 19268 ft 446 kts 334°
2026-05-08 22:44 8.84662 97.93869 19493 ft 447 kts 334°
2026-05-08 22:44 8.87449 97.92464 19711 ft 448 kts 334°
2026-05-08 22:44 8.90247 97.91051 19936 ft 450 kts 334°
2026-05-08 22:45 8.93053 97.89635 20149 ft 451 kts 334°
2026-05-08 22:45 8.95868 97.88215 20376 ft 452 kts 334°
2026-05-08 22:45 8.98687 97.86794 20581 ft 454 kts 334°
2026-05-08 22:45 9.01521 97.85365 20795 ft 455 kts 334°
2026-05-08 22:46 9.04363 97.83937 21001 ft 456 kts 334°
2026-05-08 22:46 9.07212 97.82500 21221 ft 458 kts 334°
2026-05-08 22:46 9.10026 97.81077 21420 ft 459 kts 334°
2026-05-08 22:46 9.12923 97.79612 21640 ft 460 kts 334°
2026-05-08 22:47 9.15754 97.78179 21827 ft 462 kts 334°
2026-05-08 22:47 9.18630 97.76725 22021 ft 463 kts 334°
2026-05-08 22:47 9.21520 97.75263 22209 ft 464 kts 334°
2026-05-08 22:47 9.24413 97.73800 22434 ft 465 kts 334°
2026-05-08 22:48 9.27312 97.72334 22619 ft 467 kts 334°
2026-05-08 22:48 9.30224 97.70862 22809 ft 468 kts 334°
2026-05-08 22:48 9.33138 97.69389 23002 ft 469 kts 334°
2026-05-08 22:48 9.36070 97.67906 23179 ft 471 kts 334°
2026-05-08 22:49 9.39006 97.66420 23369 ft 472 kts 334°
2026-05-08 22:49 9.44899 97.63438 23698 ft 475 kts 334°
2026-05-08 22:49 9.47859 97.61939 23842 ft 476 kts 334°
2026-05-08 22:50 9.50821 97.60439 23985 ft 477 kts 334°
2026-05-08 22:50 9.53794 97.58933 24128 ft 478 kts 334°
2026-05-08 22:50 9.56769 97.57426 24288 ft 479 kts 334°
2026-05-08 22:50 9.59759 97.55912 24436 ft 480 kts 334°
2026-05-08 22:51 9.62750 97.54396 24588 ft 481 kts 334°
2026-05-08 22:51 9.65735 97.52883 24744 ft 482 kts 334°
2026-05-08 22:51 9.68703 97.51378 24893 ft 483 kts 334°
2026-05-08 22:51 9.71713 97.49852 25037 ft 484 kts 334°
2026-05-08 22:52 9.74730 97.48322 25177 ft 485 kts 334°
2026-05-08 22:52 9.77755 97.46787 25322 ft 486 kts 334°
2026-05-08 22:52 9.80782 97.45252 25461 ft 487 kts 334°
2026-05-08 22:52 9.83816 97.43712 25599 ft 488 kts 334°
2026-05-08 22:53 9.86857 97.42168 25736 ft 489 kts 334°
2026-05-08 22:53 9.89906 97.40620 25883 ft 490 kts 334°
2026-05-08 22:53 9.92959 97.39070 26023 ft 491 kts 334°
2026-05-08 22:53 9.95973 97.37540 26153 ft 492 kts 334°
2026-05-08 22:54 9.99037 97.35984 26291 ft 493 kts 334°
2026-05-08 22:54 10.02104 97.34429 26410 ft 494 kts 334°
2026-05-08 22:54 10.05183 97.32877 26557 ft 495 kts 334°
2026-05-08 22:54 10.08277 97.31322 26704 ft 495 kts 334°
2026-05-08 22:55 10.11377 97.29765 26838 ft 496 kts 334°
2026-05-08 22:55 10.14472 97.28210 26964 ft 498 kts 334°
2026-05-08 22:55 10.17591 97.26642 27094 ft 498 kts 334°
2026-05-08 22:55 10.20703 97.25077 27237 ft 499 kts 334°
2026-05-08 22:56 10.23812 97.23512 27363 ft 500 kts 334°
2026-05-08 22:56 10.26942 97.21936 27482 ft 502 kts 334°
2026-05-08 22:56 10.30066 97.20362 27600 ft 503 kts 334°
2026-05-08 22:56 10.33201 97.18782 27729 ft 503 kts 334°
2026-05-08 22:57 10.36300 97.17221 27843 ft 505 kts 334°
2026-05-08 22:57 10.39450 97.15632 27963 ft 505 kts 334°
2026-05-08 22:57 10.42600 97.14044 28074 ft 506 kts 334°
2026-05-08 22:57 10.45760 97.12451 28193 ft 507 kts 334°
2026-05-08 22:58 10.48921 97.10856 28309 ft 508 kts 334°
2026-05-08 22:58 10.52092 97.09257 28419 ft 509 kts 334°
2026-05-08 22:58 10.55264 97.07656 28523 ft 510 kts 334°
2026-05-08 22:58 10.58439 97.06053 28622 ft 511 kts 334°
2026-05-08 22:59 10.64823 97.02830 28820 ft 512 kts 334°
2026-05-08 22:59 10.71219 96.99598 29014 ft 513 kts 334°
2026-05-08 23:00 10.76546 96.96906 29169 ft 515 kts 334°
2026-05-08 23:00 10.80804 96.94753 29294 ft 516 kts 334°
2026-05-08 23:00 10.84014 96.93130 29388 ft 517 kts 334°
2026-05-08 23:01 10.89407 96.90402 29539 ft 517 kts 334°
2026-05-08 23:01 10.95859 96.87136 29724 ft 519 kts 334°
2026-05-08 23:02 11.02328 96.83860 29960 ft 519 kts 334°
2026-05-08 23:02 11.05559 96.82223 30083 ft 518 kts 334°
2026-05-08 23:02 11.08784 96.80589 30202 ft 518 kts 334°
2026-05-08 23:03 11.12012 96.78953 30329 ft 518 kts 334°
2026-05-08 23:03 11.15231 96.77321 30458 ft 517 kts 334°
2026-05-08 23:03 11.18456 96.75686 30601 ft 517 kts 334°
2026-05-08 23:03 11.21674 96.74054 30748 ft 516 kts 334°
2026-05-08 23:04 11.24857 96.72441 30853 ft 517 kts 333°
2026-05-08 23:04 11.28101 96.70799 30850 ft 521 kts 333°
2026-05-08 23:04 11.31341 96.69154 31015 ft 520 kts 333°
2026-05-08 23:04 11.34575 96.67511 31201 ft 519 kts 333°
2026-05-08 23:05 11.37806 96.65868 31381 ft 518 kts 333°
2026-05-08 23:05 11.41030 96.64230 31522 ft 518 kts 333°
2026-05-08 23:05 11.44256 96.62589 31679 ft 517 kts 333°
2026-05-08 23:05 11.47478 96.60952 31830 ft 517 kts 333°
2026-05-08 23:06 11.50675 96.59326 31996 ft 516 kts 333°
2026-05-08 23:06 11.53908 96.57683 32150 ft 516 kts 333°
2026-05-08 23:06 11.57084 96.56067 32304 ft 516 kts 333°
2026-05-08 23:06 11.60293 96.54435 32440 ft 516 kts 333°
2026-05-08 23:07 11.63503 96.52801 32601 ft 515 kts 333°
2026-05-08 23:07 11.66716 96.51166 32761 ft 515 kts 333°
2026-05-08 23:07 11.69924 96.49533 32922 ft 514 kts 333°
2026-05-08 23:07 11.73114 96.47908 33097 ft 514 kts 333°
2026-05-08 23:08 11.76325 96.46272 33267 ft 513 kts 333°
2026-05-08 23:08 11.79523 96.44643 33447 ft 513 kts 333°
2026-05-08 23:08 11.82715 96.43016 33615 ft 512 kts 333°
2026-05-08 23:08 11.85905 96.41390 33796 ft 512 kts 333°
2026-05-08 23:09 11.89008 96.39598 33938 ft 512 kts 326°
2026-05-08 23:09 11.91830 96.37390 34074 ft 511 kts 318°
2026-05-08 23:09 11.94442 96.34932 34233 ft 510 kts 316°
2026-05-08 23:09 11.96988 96.32392 34390 ft 510 kts 315°